KE4OGG Weather Reports


Display with metric or nautical units.
time (UTC)temp
F
wind
direction
speed
MPH
gust
MPH
rain 1hr
in
rain 24hr
in
rain mn
in
humidity
%
barometer
mb
20260507192522 77 32 4.0 12.0 0.00 2.42 1.29 44 1009.9
20260507192022 77 112 4.0 10.0 0.00 2.42 1.29 44 1009.9
20260507191538 77 282 2.0 9.0 0.00 2.42 1.29 46 1010.0
20260507191023 76 286 5.0 10.0 0.00 2.42 1.29 46 1009.9
20260507190522 76 300 5.0 10.0 0.00 2.42 1.29 45 1010.1
20260507190043 77 283 3.0 9.0 0.00 2.42 1.29 46 1010.1
20260507185523 77 283 2.0 12.0 0.00 2.42 1.29 50 1010.3
20260507185023 75 325 4.0 12.0 0.00 2.42 1.29 49 1010.4
20260507184532 75 281 3.0 11.0 0.00 2.42 1.29 52 1010.4
20260507184023 75 289 5.0 9.0 0.00 2.42 1.29 55 1010.5
20260507183522 75 300 4.0 8.0 0.00 2.42 1.29 62 1010.6
20260507183043 76 288 2.0 8.0 0.00 2.42 1.29 63 1010.6
20260507182523 76 293 3.0 8.0 0.00 2.42 1.29 65 1010.6
20260507182025 75 295 3.0 9.0 0.00 2.42 1.29 67 1010.6
20260507181538 74 293 2.0 9.0 0.00 2.42 1.29 67 1010.8
20260507181026 74 297 2.0 6.0 0.00 2.42 1.29 68 1010.6
20260507180522 75 286 2.0 6.0 0.00 2.42 1.29 67 1010.7
20260507180037 76 288 2.0 6.0 0.00 2.42 1.29 65 1010.6
20260507175523 76 0 1.0 5.0 0.00 2.42 1.29 66 1010.7
20260507175023 76 144 0.0 3.0 0.00 2.42 1.29 66 1010.6
20260507174538 75 0 0.0 3.0 0.00 2.42 1.29 69 1010.7
20260507174022 75 20 0.0 5.0 0.00 2.42 1.29 68 1010.6
20260507173523 75 304 2.0 5.0 0.00 2.42 1.29 68 1010.6
20260507173045 75 294 1.0 8.0 0.00 2.42 1.29 68 1010.6
20260507172522 76 70 1.0 8.0 0.00 2.42 1.29 68 1010.5
20260507172022 74 304 2.0 8.0 0.00 2.42 1.29 68 1010.4
20260507171550 75 281 2.0 6.0 0.00 2.42 1.29 67 1010.4
20260507171025 74 283 3.0 7.0 0.00 2.42 1.29 67 1010.4
20260507170526 75 300 3.0 11.0 0.00 2.42 1.29 68 1010.5
20260507170041 75 311 1.0 11.0 0.00 2.42 1.29 69 1010.4
20260507165522 75 290 4.0 11.0 0.00 2.47 1.29 64 1010.5
20260507165022 76 198 1.0 5.0 0.00 2.47 1.29 68 1010.5
20260507164539 76 44 2.0 4.0 0.00 2.47 1.29 67 1010.6
20260507164022 77 20 1.0 4.0 0.00 2.47 1.29 68 1010.6
20260507163523 77 281 1.0 4.0 0.00 2.47 1.29 69 1010.6
20260507163037 76 288 1.0 3.0 0.00 2.47 1.29 70 1010.7
20260507162523 75 0 0.0 3.0 0.00 2.47 1.29 70 1010.8
20260507162022 74 0 0.0 4.0 0.00 2.47 1.29 71 1010.7
20260507161541 73 78 0.0 4.0 0.00 2.47 1.29 72 1010.9
20260507161024 74 290 1.0 4.0 0.00 2.47 1.29 70 1011.1
20260507160523 74 112 0.0 3.0 0.00 2.47 1.29 72 1011.3
20260507160045 74 347 0.0 3.0 0.00 2.47 1.29 71 1011.3
20260507155522 74 0 0.0 3.0 0.00 2.47 1.29 72 1011.5
20260507155028 74 0 0.0 4.0 0.00 2.47 1.29 72 1011.3
20260507154538 74 0 0.0 4.0 0.00 2.47 1.29 73 1011.0
20260507154026 73 300 0.0 2.0 0.00 2.47 1.29 75 1011.1
20260507153525 72 300 0.0 2.0 0.00 2.47 1.29 74 1011.1
20260507153037 73 0 0.0 1.0 0.00 2.47 1.29 74 1011.4
20260507152526 73 0 0.0 2.0 0.00 2.47 1.29 76 1011.6
20260507152023 72 0 0.0 2.0 0.00 2.47 1.29 77 1011.5
20260507151538 71 340 0.0 4.0 0.00 2.47 1.29 78 1011.4
20260507151024 70 0 0.0 4.0 0.00 2.47 1.29 80 1011.5
20260507150526 69 290 0.0 3.0 0.00 2.47 1.29 80 1011.6
20260507150037 69 314 0.0 2.0 0.00 2.47 1.29 81 1011.7
20260507145522 69 319 0.0 1.0 0.00 2.47 1.29 82 1011.9
20260507145022 68 299 0.0 1.0 0.00 2.47 1.29 82 1012.1
20260507144557 68 298 0.0 2.0 0.00 2.47 1.29 83 1012.0
20260507144023 68 0 0.0 2.0 0.00 2.47 1.29 82 1012.0
20260507143523 68 313 0.0 2.0 0.00 2.47 1.29 83 1011.8
20260507143037 68 0 0.0 1.0 0.00 2.47 1.29 83 1011.6
20260507142523 68 306 0.0 2.0 0.00 2.47 1.29 84 1011.6
20260507142026 67 0 0.0 2.0 0.01 2.47 1.29 85 1011.2
20260507141540 67 315 0.0 0.0 0.01 2.47 1.29 86 1011.1
20260507141022 66 316 0.0 1.0 0.02 2.47 1.29 86 1011.0
20260507140522 65 316 0.0 2.0 0.03 2.47 1.29 86 1011.0
20260507140036 65 0 0.0 2.0 0.03 2.47 1.29 87 1010.8
20260507135524 64 313 0.0 3.0 0.04 2.47 1.29 86 1010.8
20260507135023 64 0 0.0 3.0 0.04 2.47 1.29 86 1010.6
20260507134544 64 0 0.0 1.0 0.05 2.47 1.29 86 1011.0
20260507134023 64 314 0.0 1.0 0.06 2.47 1.29 86 1011.0
20260507133523 64 0 0.0 1.0 0.07 2.47 1.29 86 1010.9
20260507133039 63 0 0.0 1.0 0.09 2.47 1.29 86 1011.1
20260507132522 63 0 0.0 1.0 0.10 2.47 1.29 86 1011.1
20260507132022 63 0 0.0 0.0 0.10 2.46 1.28 87 1011.5
20260507131541 63 0 0.0 1.0 0.10 2.46 1.28 87 1011.8
20260507131024 63 0 0.0 1.0 0.09 2.45 1.27 87 1011.9
20260507130525 63 0 0.0 1.0 0.08 2.44 1.26 86 1011.7
20260507130037 63 0 0.0 1.0 0.08 2.44 1.26 86 1011.7
20260507125524 63 0 0.0 0.0 0.08 2.43 1.25 87 1012.1
20260507125024 63 0 0.0 0.0 0.08 2.43 1.25 86 1011.9
20260507124537 63 307 0.0 0.0 0.07 2.42 1.24 86 1011.6
20260507124028 63 0 0.0 0.0 0.06 2.41 1.23 86 1011.7
20260507123523 63 0 0.0 2.0 0.04 2.39 1.21 87 1012.0
20260507123037 63 0 0.0 2.0 0.04 2.38 1.20 86 1012.1
20260507122523 63 272 0.0 1.0 0.04 2.36 1.19 87 1011.1
20260507122025 63 0 0.0 0.0 0.04 2.35 1.17 86 1011.0
20260507121539 62 0 0.0 0.0 0.05 2.35 1.17 87 1010.8
20260507121024 62 0 0.0 1.0 0.06 2.35 1.17 87 1010.8
20260507120523 62 0 0.0 1.0 0.09 2.35 1.17 86 1011.0
20260507120038 62 305 0.0 1.0 0.10 2.35 1.17 86 1011.3
20260507115523 62 305 0.0 1.0 0.12 2.34 1.16 86 1011.4
20260507115023 62 0 0.0 0.0 0.14 2.34 1.16 86 1011.5
20260507114538 62 0 0.0 2.0 0.19 2.34 1.16 86 1011.7
20260507114023 62 0 1.0 2.0 0.23 2.34 1.16 86 1011.3
20260507113524 62 305 1.0 2.0 0.23 2.34 1.16 86 1010.7
20260507113038 62 0 0.0 2.0 0.22 2.33 1.16 86 1011.2
20260507112527 62 305 0.0 2.0 0.22 2.33 1.15 86 1011.4
20260507112026 62 310 0.0 2.0 0.21 2.32 1.14 86 1010.7
20260507111542 62 0 0.0 2.0 0.20 2.31 1.13 86 1010.6
20260507111024 62 278 0.0 4.0 0.18 2.29 1.11 86 1011.2
20260507110524 62 325 1.0 4.0 0.16 2.27 1.09 86 1011.9
20260507110037 62 310 1.0 3.0 0.14 2.25 1.07 86 1012.0
20260507105525 62 295 2.0 3.0 0.11 2.22 1.04 86 1011.9
20260507105023 62 325 1.0 2.0 0.11 2.21 1.03 86 1011.7
20260507104538 63 323 1.0 2.0 0.07 2.16 0.98 86 1011.5
20260507104024 63 298 0.0 1.0 0.05 2.11 0.94 86 1011.3
20260507103524 63 0 0.0 1.0 0.06 2.11 0.94 86 1011.2
20260507103040 63 0 0.0 0.0 0.06 2.11 0.94 86 1011.1
20260507102523 63 0 0.0 0.0 0.05 2.10 0.93 86 1011.1
20260507102023 63 0 0.0 0.0 0.05 2.10 0.93 86 1011.1
20260507101545 63 0 0.0 0.0 0.05 2.10 0.93 86 1011.1
20260507101024 63 0 0.0 1.0 0.06 2.10 0.93 86 1011.0
20260507100524 63 0 0.0 1.0 0.06 2.10 0.93 86 1011.1
20260507100041 63 0 0.0 1.0 0.06 2.10 0.93 86 1011.2
20260507095523 63 314 0.0 2.0 0.05 2.09 0.92 86 1011.3
20260507095026 63 317 0.0 2.0 0.05 2.09 0.92 86 1011.2
20260507094545 63 13 0.0 2.0 0.04 2.08 0.91 86 1011.5
20260507094022 63 292 1.0 2.0 0.02 2.07 0.89 86 1011.7
20260507093523 63 303 0.0 1.0 0.01 2.06 0.88 86 1011.7
20260507093044 63 0 0.0 0.0 0.02 2.06 0.88 86 1011.6
20260507092522 63 0 0.0 2.0 0.04 2.06 0.88 86 1011.4
20260507092022 63 0 0.0 2.0 0.04 2.06 0.88 86 1011.2
20260507091540 63 311 0.0 2.0 0.04 2.06 0.88 86 1011.2
20260507091023 63 312 0.0 1.0 0.03 2.05 0.87 86 1011.3
20260507090525 63 0 0.0 0.0 0.04 2.05 0.87 86 1011.2
20260507090038 63 311 0.0 0.0 0.05 2.05 0.87 86 1011.2
20260507085523 63 0 0.0 0.0 0.09 2.05 0.87 86 1011.3
20260507085022 63 0 0.0 0.0 0.13 2.05 0.87 86 1011.3
20260507084545 63 0 0.0 1.0 0.15 2.05 0.87 86 1011.3
20260507084023 63 0 0.0 1.0 0.19 2.05 0.87 86 1011.1
20260507083527 63 312 0.0 3.0 0.21 2.05 0.87 86 1011.2
20260507083041 63 0 0.0 3.0 0.22 2.04 0.86 86 1011.1
20260507082524 63 303 2.0 3.0 0.23 2.02 0.84 86 1011.0
20260507082022 63 301 0.0 1.0 0.25 2.02 0.84 86 1012.1
20260507081539 63 0 0.0 0.0 0.27 2.02 0.84 86 1011.8
20260507081023 63 0 0.0 1.0 0.29 2.02 0.84 86 1011.7
20260507080523 63 0 0.0 4.0 0.31 2.01 0.83 86 1011.8
20260507080040 63 0 0.0 4.0 0.31 2.00 0.82 86 1011.7
20260507075523 63 85 0.0 2.0 0.28 1.96 0.78 86 1011.9
20260507075029 63 289 0.0 1.0 0.24 1.92 0.74 86 1012.7
20260507074538 63 0 0.0 1.0 0.21 1.89 0.71 86 1012.3
20260507074025 63 0 0.0 1.0 0.18 1.85 0.67 86 1012.4
20260507073523 63 0 0.0 1.0 0.16 1.83 0.65 86 1012.3
20260507073035 63 0 0.0 1.0 0.15 1.82 0.64 86 1012.2
20260507072523 63 0 0.0 0.0 0.12 1.78 0.60 86 1012.3
20260507072022 63 0 0.0 0.0 0.12 1.77 0.58 86 1012.0
20260507071540 63 0 0.0 1.0 0.10 1.75 0.57 86 1011.9
20260507071023 63 0 0.0 1.0 0.08 1.73 0.55 86 1012.0
20260507070525 63 0 0.0 3.0 0.07 1.70 0.52 86 1012.4
20260507070039 63 295 1.0 3.0 0.10 1.69 0.51 86 1012.7
20260507065522 63 290 1.0 2.0 0.10 1.68 0.50 86 1012.7
20260507065022 63 0 0.0 1.0 0.12 1.68 0.50 86 1012.3
20260507064538 63 0 0.0 1.0 0.13 1.68 0.50 86 1012.3
20260507064022 63 304 0.0 3.0 0.13 1.67 0.49 86 1012.4
20260507063523 63 0 0.0 4.0 0.14 1.67 0.49 86 1012.2
20260507063046 63 4 3.0 4.0 0.14 1.67 0.49 86 1012.0
20260507062522 63 0 0.0 1.0 0.18 1.66 0.48 86 1012.5
20260507062022 63 4 0.0 1.0 0.17 1.65 0.47 86 1013.0
20260507061542 63 0 0.0 1.0 0.17 1.65 0.47 86 1012.9
20260507061025 63 0 0.0 2.0 0.17 1.64 0.46 86 1013.2
20260507060523 63 4 0.0 2.0 0.17 1.62 0.44 86 1013.2
20260507060051 63 14 0.0 2.0 0.16 1.59 0.41 86 1013.7
20260507055525 63 53 1.0 2.0 0.19 1.57 0.39 86 1014.1
20260507055022 63 0 0.0 0.0 0.30 1.56 0.38 86 1013.6
20260507054546 63 0 0.0 0.0 0.31 1.55 0.37 86 1013.5
20260507054023 63 0 0.0 0.0 0.30 1.54 0.36 86 1013.5
20260507053524 63 0 0.0 1.0 0.31 1.53 0.35 86 1013.6
20260507053041 63 0 0.0 1.0 0.33 1.53 0.35 86 1013.5
20260507052522 63 293 0.0 1.0 0.28 1.48 0.30 86 1013.5
20260507052022 63 0 0.0 1.0 0.28 1.48 0.30 86 1013.7
20260507051538 63 0 0.0 2.0 0.28 1.48 0.30 86 1013.9
20260507051022 63 0 0.0 4.0 0.28 1.47 0.29 86 1014.1
20260507050523 64 292 1.0 6.0 0.26 1.45 0.27 86 1014.3
20260507050038 64 293 2.0 6.0 0.24 1.42 0.24 86 1015.1
20260507045523 64 349 1.0 4.0 0.19 1.37 0.19 86 1014.6
20260507045022 64 53 1.0 4.0 0.07 1.25 0.07 86 1014.9
20260507044552 64 285 2.0 3.0 0.06 1.24 0.06 86 1014.7
20260507044022 64 304 0.0 1.0 0.06 1.24 0.06 86 1013.5
20260507043523 64 0 0.0 1.0 0.03 1.21 0.03 86 1013.5
20260507043039 64 0 0.0 1.0 0.02 1.20 0.02 86 1013.7
20260507042522 64 0 0.0 1.0 0.02 1.20 0.02 86 1013.7
20260507042022 64 0 0.0 1.0 0.02 1.20 0.02 86 1013.7
20260507041538 64 0 0.0 1.0 0.02 1.20 0.02 86 1014.1
20260507041022 64 0 0.0 1.0 0.01 1.19 0.01 86 1014.1
20260507040523 64 0 0.0 1.0 0.01 1.19 0.01 86 1014.0
20260507040039 64 0 0.0 1.0 0.00 1.17 0.00 86 1014.0
20260507035522 64 0 0.0 0.0 0.00 1.17 1.17 86 1013.8
20260507035026 64 0 0.0 0.0 0.00 1.17 1.17 86 1014.0
20260507034538 64 0 0.0 0.0 0.00 1.17 1.17 86 1014.0
20260507034023 64 0 0.0 0.0 0.00 1.17 1.17 86 1013.6
20260507033523 64 0 0.0 1.0 0.00 1.17 1.17 86 1013.3
20260507033351 64 0 0.0 1.0 0.00 1.17 1.17 86 1013.2
20260507032522 64 0 0.0 2.0 0.00 1.17 1.17 86 1013.4
20260507032022 64 0 0.0 2.0 0.00 1.17 1.17 86 1013.2
20260507031538 64 0 1.0 2.0 0.00 1.17 1.17 86 1013.6
20260507031023 64 0 0.0 1.0 0.00 1.17 1.17 86 1013.5
20260507030525 64 147 0.0 1.0 0.00 1.17 1.17 86 1013.5
20260507030039 64 0 0.0 1.0 0.01 1.17 1.17 86 1013.8
20260507025522 64 0 0.0 1.0 0.01 1.17 1.17 85 1013.9
20260507025022 64 0 0.0 1.0 0.01 1.17 1.17 85 1013.7
20260507024541 64 147 0.0 4.0 0.02 1.17 1.17 85 1013.5
20260507024022 64 0 0.0 4.0 0.03 1.17 1.17 85 1013.5
20260507023525 64 0 0.0 4.0 0.03 1.17 1.17 85 1013.3
20260507023037 64 103 1.0 4.0 0.03 1.17 1.17 85 1013.3
20260507022525 64 122 2.0 4.0 0.03 1.17 1.17 85 1013.3
20260507022024 64 108 1.0 2.0 0.03 1.17 1.17 85 1013.5
20260507021540 64 302 0.0 1.0 0.04 1.17 1.17 85 1013.4
20260507021023 64 0 0.0 1.0 0.05 1.17 1.17 85 1013.7
20260507020523 64 0 0.0 1.0 0.05 1.17 1.17 85 1014.4
20260507020046 64 0 0.0 1.0 0.05 1.16 1.16 85 1014.5
20260507015525 64 302 0.0 1.0 0.09 1.16 1.16 85 1013.8
20260507015022 64 302 0.0 2.0 0.14 1.16 1.16 85 1013.9
20260507014537 64 302 0.0 2.0 0.17 1.16 1.16 85 1014.3
20260507014025 64 321 0.0 2.0 0.26 1.15 1.15 85 1013.6
20260507013522 64 0 0.0 2.0 0.69 1.15 1.15 85 1014.8
20260507013040 64 0 0.0 2.0 0.98 1.15 1.15 85 1014.9
20260507012522 64 0 0.0 0.0 1.01 1.15 1.15 85 1014.7
20260507012022 64 0 0.0 0.0 1.02 1.14 1.14 85 1014.9
20260507011541 64 0 0.0 1.0 1.02 1.14 1.14 85 1014.5
20260507011022 64 0 0.0 1.0 1.01 1.13 1.13 85 1014.6
20260507010522 64 0 0.0 2.0 1.01 1.13 1.13 84 1014.7
20260507010040 64 43 0.0 2.0 0.99 1.11 1.11 84 1014.8
20260507005522 64 43 0.0 3.0 0.96 1.08 1.08 84 1015.3
20260507005021 64 43 0.0 3.0 0.90 1.02 1.02 84 1015.1
20260507004539 64 301 0.0 6.0 0.86 0.98 0.98 83 1015.2
20260507004023 64 0 1.0 6.0 0.74 0.86 0.86 83 1015.1
20260507003524 65 1 4.0 6.0 0.27 0.39 0.39 82 1016.0
20260507003037 65 316 4.0 6.0 0.05 0.17 0.17 81 1015.3
20260507002522 64 297 0.0 3.0 0.07 0.14 0.14 79 1011.2
20260507002024 65 0 0.0 2.0 0.06 0.12 0.12 79 1011.6
20260507001541 65 205 0.0 2.0 0.06 0.12 0.12 79 1011.6
20260507001022 65 0 0.0 2.0 0.06 0.12 0.12 78 1010.9
20260507000522 65 275 0.0 1.0 0.07 0.12 0.12 77 1011.9
20260507000038 65 0 0.0 1.0 0.07 0.12 0.12 74 1012.4
20260506235523 65 337 0.0 1.0 0.07 0.12 0.12 73 1012.7
20260506235023 65 0 0.0 1.0 0.07 0.12 0.12 71 1013.1
20260506234542 66 0 0.0 1.0 0.07 0.12 0.12 69 1013.2
20260506234023 66 0 0.0 2.0 0.07 0.12 0.12 68 1013.6
20260506233523 66 0 0.0 3.0 0.07 0.12 0.12 67 1013.6
20260506233040 67 298 1.0 4.0 0.06 0.11 0.11 65 1013.5
20260506232522 67 0 1.0 4.0 0.01 0.06 0.06 64 1014.1
20260506232022 67 307 2.0 4.0 0.01 0.06 0.06 63 1014.2
20260506231543 68 293 1.0 4.0 0.01 0.06 0.06 62 1013.9
20260506231023 69 293 2.0 8.0 0.01 0.06 0.06 61 1014.1
20260506230524 70 22 3.0 8.0 0.00 0.05 0.05 59 1013.7
20260506230040 71 314 1.0 6.0 0.00 0.05 0.05 57 1013.7
20260506225523 71 256 2.0 6.0 0.00 0.05 0.05 56 1013.7
20260506225024 72 296 3.0 6.0 0.00 0.05 0.05 56 1014.2
20260506224544 74 300 2.0 6.0 0.00 0.05 0.05 55 1013.6
20260506224024 74 49 1.0 3.0 0.00 0.05 0.05 55 1013.2
20260506223523 75 298 1.0 3.0 0.00 0.05 0.05 54 1013.2
20260506223033 75 325 0.0 2.0 0.00 0.05 0.05 53 1012.8
20260506222526 76 319 1.0 3.0 0.00 0.05 0.05 52 1012.5
20260506222023 76 0 0.0 3.0 0.00 0.05 0.05 52 1012.3
20260506221540 77 292 0.0 2.0 0.00 0.05 0.05 53 1012.3
20260506221020 76 0 0.0 2.0 0.00 0.05 0.05 53 1012.4
20260506220523 76 0 0.0 2.0 0.00 0.05 0.05 53 1012.2
20260506220040 76 0 0.0 2.0 0.00 0.05 0.05 54 1012.7
20260506215523 76 86 0.0 1.0 0.00 0.05 0.05 53 1012.8
20260506215020 76 0 0.0 2.0 0.00 0.05 0.05 54 1012.8
20260506214549 76 88 0.0 3.0 0.00 0.05 0.05 53 1012.7
20260506214023 76 86 1.0 3.0 0.00 0.05 0.05 53 1012.4
20260506213520 76 104 1.0 2.0 0.00 0.05 0.05 52 1012.4
20260506213043 77 89 0.0 2.0 0.00 0.05 0.05 50 1012.5
20260506212523 76 0 0.0 0.0 0.00 0.05 0.05 52 1012.5
20260506212020 76 0 0.0 0.0 0.00 0.05 0.05 53 1012.8
20260506211537 75 0 0.0 1.0 0.00 0.05 0.05 53 1013.1
20260506211021 75 0 0.0 1.0 0.00 0.05 0.05 53 1013.1
20260506210524 76 306 0.0 1.0 0.00 0.05 0.05 53 1013.2
20260506210040 76 50 0.0 1.0 0.00 0.05 0.05 53 1013.5
20260506205523 76 0 0.0 3.0 0.00 0.05 0.05 53 1013.5
20260506205023 76 294 1.0 4.0 0.00 0.05 0.05 52 1013.7
20260506204540 76 286 2.0 4.0 0.00 0.05 0.05 51 1013.4
20260506204023 77 298 1.0 4.0 0.00 0.05 0.05 50 1013.4
20260506203520 77 0 0.0 1.0 0.00 0.05 0.05 50 1013.5
20260506203042 77 0 0.0 1.0 0.00 0.05 0.05 51 1013.7
20260506202524 77 0 0.0 2.0 0.00 0.05 0.05 50 1013.8
20260506202024 77 286 0.0 2.0 0.00 0.05 0.05 51 1013.7
20260506201538 78 292 0.0 3.0 0.00 0.05 0.05 50 1013.8
20260506201025 78 0 0.0 5.0 0.00 0.05 0.05 50 1014.0
20260506200523 78 283 1.0 5.0 0.00 0.05 0.05 48 1014.2
20260506200037 79 0 0.0 4.0 0.00 0.05 0.05 48 1014.3
20260506195523 79 296 0.0 6.0 0.00 0.05 0.05 48 1014.1
20260506195027 79 290 1.0 6.0 0.00 0.05 0.05 49 1014.2
20260506194546 80 298 0.0 5.0 0.00 0.05 0.05 47 1014.3
20260506194020 80 15 1.0 5.0 0.00 0.05 0.05 47 1014.3
20260506193523 80 283 1.0 7.0 0.00 0.05 0.05 47 1014.3
20260506193041 80 115 0.0 7.0 0.00 0.05 0.05 48 1014.2